Simultaneous Nadir Overpasses (SNOs) Predictions

Prediction of SNOs between AURA and NPP Satellite Orbit:

Table of predicted SNOs for the next 14.0 days since TLE Epoch: 9/17/2016
Index Date (AURA) Time (AURA) Lat,Lon (AURA) SZA (AURA ) Date (NPP) Time (NPP) Lat,Lon (NPP) SZA (NPP ) Distance(km) Time Diff (sec)
1 09/18/2016 18:18:47 -79.01, -21.13 88.64 09/18/2016 18:17:33 -79.02, -21.07 88.59 1.35 74
2 09/18/2016 19:08:06 79.29, 148.20 91.01 09/18/2016 19:08:10 79.29, 148.20 91.01 0.18 4
3 09/21/2016 10:35:15 -79.03, 94.82 87.67 09/21/2016 10:34:31 -79.02, 94.69 87.62 2.75 44
4 09/21/2016 11:24:30 79.45, -94.83 91.76 09/21/2016 11:25:03 79.46, -94.71 91.71 2.58 33
5 09/24/2016 02:51:38 -79.23,-148.05 86.97 09/24/2016 02:51:23 -79.23,-148.04 86.96 0.28 15
6 09/24/2016 03:40:57 79.49, 21.33 92.69 09/24/2016 03:42:00 79.49, 21.30 92.64 0.61 63
7 09/26/2016 18:18:44 78.97, 158.64 94.35 09/26/2016 18:17:42 78.96, 158.52 94.42 2.59 62
8 09/26/2016 19:08:03 -79.30, -31.68 86.09 09/26/2016 19:08:18 -79.29, -31.78 86.08 2.26 15
9 09/29/2016 10:35:06 79.20, -84.09 95.03 09/29/2016 10:34:33 79.21, -84.00 95.04 1.94 33




NCC Satellite Simultaneous Nadir Overpasses (SNOs) Prediction Service
